SCP
0 0 0 0 0 0 0 0 0 0 0 0 0 0 0 0 0 0 0 0 0 0 0 0 0 0 0 0 0 0 0 0 0 0 0 0 0 0 0 0 0 0 0
0 0 0 0 0 0 0 0 0 0 0 0 0 0 0 0 0 0 0 0 0 0 0 0 0 0 0 0 0 0 0 0 0 0 0 0 0 0 0 0 0 0 0
0 0 0 0 0 0 0 0 0 0 0 0 0 0 0 0 0 0 0 0 0 0 0 0 0 0 0 0 0 0 0 0 0 0 0 0 0 0 0 0 0 0 0
0 0 0 0 0 0 0 0 0 0 0 0 0 0 0 0 0 0 0 0 0 0 0 0 0 0 0 0 0 0 0 0 0 0 0 0 0 0 0 0 0 0 0
0 0 0 0 0 0 0 0 0 0 0 0 0 0 0 0 0 0 0 0 0 0 0 0 0 0 0 0 0 0 0 0 0 0 0 0 0 0 0 0 0 0 0
0 0 0 0 0 0 0 0 0 0 0 0 0 0 0 0 0 0 0 0 0 0 0 0 0 0 0 0 0 0 0 0 0 0 0 0 0 0 0 0 0 0 0
0 0 0 0 0 0 0 0 0 0 0 0 0 0 0 0 0 0 0 0 0 0 0 0 0 0 0 0 0 0 0 0 0 0 0 0 0 0 0 0 0 0 0
0 0 0 0 0 0 0 0 0 0 0 0 0 0 0 0 0 0 0 0 0 0 0 0 0 0 0 0 0 0 0 0 0 0 0 0 0 0 0 0 0 0 0
0 0 0 0 0 0 0 0 0 0 0 0 0 0 0 0 0 0 0 0 0 0 0 0 0 0 0 0 0 0 0 0 0 0 0 0 0 0 0 0 0 0 0
0 0 0 0 0 0 0 0 0 0 0 0 0 0 0 0 0 0 0 0 0 0 0 0 0 0 0 0 0 0 0 0 0 0 0 0 0 0 0 0 0 0 0
0 0 0 0 0 0 0 0 0 0 0 0 0 0 0 0 0 0 0 0 0 0 0 0 0 0 0 0 0 0 0 0 0 0 0 0 0 0 0 0 0 0 0
0 0 0 0 0 0 0 0 0 0 0 0 0 0 0 0 0 0 0 0 0 0 0 0 0 0 0 0 0 0 0 0 0 0 0 0 0 0 0 0 0 0 0
0 0 0 0 0 0 0 1 1 1 1 1 1 1 1 1 0 0 1 1 1 1 0 0 0 0 0 0 0 0 0 0 0 0 0 0 0 0 0 0 0 0 0
0 0 0 0 0 0 0 1 1 1 1 1 1 1 1 1 1 1 1 1 1 1 0 0 0 0 0 0 0 0 0 0 0 0 0 0 0 0 0 0 0 0 0
0 0 0 0 0 0 1 1 1 1 1 1 1 1 1 1 1 1 1 1 1 1 1 0 0 0 0 0 0 0 0 0 0 0 0 0 0 0 0 0 0 0 0
0 0 0 0 0 1 1 1 1 1 1 1 1 1 1 1 1 1 1 1 1 1 1 1 1 0 0 0 0 0 0 0 0 0 0 0 0 0 0 0 0 0 0
0 0 0 0 0 1 1 1 1 1 1 1 1 1 1 1 1 1 1 1 1 1 1 1 1 1 0 0 0 0 0 0 0 0 0 0 0 0 0 0 0 0 0
0 0 0 0 0 1 1 1 1 1 1 1 1 1 1 1 1 1 1 1 1 1 1 1 1 1 0 0 0 0 0 0 0 0 0 0 0 0 0 0 0 0 0
1 0 0 0 1 1 1 1 1 1 1 1 1 1 1 1 1 1 1 1 1 1 1 1 1 1 0 0 0 0 0 0 0 0 0 0 0 0 0 0 0 0 0
0 1 1 1 1 0 0 0 1 1 1 1 1 1 1 1 1 1 1 1 1 1 1 1 1 0 0 0 0 0 0 0 0 0 0 0 0 0 0 0 0 0 0
0 1 1 1 0 0 0 0 0 0 1 1 1 1 1 1 1 1 1 1 1 0 0 0 0 0 0 0 0 0 0 0 0 0 0 0 0 0 0 0 0 0 0
0 0 1 1 0 0 0 0 0 0 1 1 1 1 1 1 1 1 1 1 0 0 0 0 0 0 0 0 0 0 0 0 0 0 0 0 0 0 0 0 0 0 0
1 0 1 1 1 0 0 0 0 0 1 1 1 1 1 1 1 1 1 1 1 0 0 0 0 0 0 0 0 0 0 0 0 0 0 0 0 0 0 0 0 0 0
1 0 0 1 1 1 1 1 1 0 0 1 1 1 1 1 1 1 1 1 1 0 0 0 0 0 0 0 0 0 0 0 0 0 0 0 0 0 0 0 0 0 0
0 0 0 0 1 1 1 1 1 0 0 1 1 1 1 1 1 1 0 0 0 0 0 0 0 0 0 0 0 0 0 0 0 0 0 0 0 0 0 0 0 0 0
0 0 0 0 0 0 0 1 1 1 1 1 1 1 1 1 0 0 0 0 0 0 0 0 0 0 0 0 0 0 0 0 0 0 0 0 0 0 0 0 0 0 0
Wind_Speed
7 6 7 7 6 6 6 6 6 5 5 3 3 3 2 2 2 3 4 5 5 5 5 4 4 4 3 3 4 2 2 1 1 1 1 2 2 2 2 2 2 3 4
6 7 7 7 8 8 7 6 6 6 6 4 3 3 3 2 2 2 3 5 5 6 6 5 4 4 3 3 3 3 2 1 2 2 1 2 3 2 1 1 2 3 3
8 8 8 9 8 9 9 9 8 6 6 5 3 3 2 2 1 2 2 3 5 6 5 6 5 4 4 4 4 4 4 2 2 2 3 2 2 2 2 1 2 2 3
8 8 9 9 10 10 9 8 7 6 6 6 5 5 4 4 4 3 2 3 4 4 5 5 5 5 4 4 4 4 4 4 3 2 2 2 2 1 2 2 1 2 3
9 9 10 10 9 9 9 8 7 6 6 6 7 6 4 3 2 2 3 3 2 3 4 5 4 5 4 5 4 4 4 4 4 3 2 2 1 2 2 3 2 2 2
8 8 7 6 6 7 7 7 7 6 6 6 6 7 6 5 4 3 3 3 2 2 4 5 5 5 4 5 5 5 5 4 4 4 3 3 3 3 3 3 3 2 2
8 8 8 8 7 7 7 7 8 7 6 7 7 6 6 6 6 5 4 4 3 3 4 5 5 4 5 5 4 5 5 5 5 5 4 4 3 3 3 3 2 2 2
8 9 9 8 8 8 7 7 8 7 7 8 7 6 5 4 4 5 4 5 4 4 4 4 5 5 5 5 4 4 4 4 5 5 5 4 4 3 3 3 2 2 2
6 7 7 7 8 8 8 8 7 7 7 7 6 5 5 5 5 5 5 4 4 4 4 5 5 5 5 5 5 4 4 4 5 5 5 4 3 3 4 3 3 3 3
4 5 6 7 7 7 7 6 7 7 7 6 6 6 5 5 5 4 5 4 4 3 3 4 5 5 4 5 4 4 4 4 4 4 4 4 3 3 3 4 3 4 4
3 3 4 5 5 5 6 6 6 6 6 6 5 5 5 5 5 5 5 4 4 4 4 4 4 4 5 5 5 5 5 5 5 4 5 5 4 4 3 3 3 4 4
2 2 3 3 4 5 6 6 7 7 7 6 6 6 5 5 5 5 5 5 4 4 4 4 4 5 5 5 5 6 5 6 6 6 5 6 4 5 4 4 4 4 4
1 2 2 2 3 4 4 5 6 7 6 6 6 6 6 6 6 6 4 4 4 4 4 4 5 5 5 5 6 6 6 6 6 5 6 6 5 5 4 4 4 4 4
2 2 2 2 2 3 3 4 4 5 6 6 6 6 7 6 6 5 4 4 4 4 4 4 4 4 4 5 5 5 5 5 5 5 5 5 6 6 5 5 5 4 3
2 2 2 2 2 2 2 3 3 4 5 5 5 6 5 5 4 4 4 4 3 4 3 3 3 3 3 4 4 4 4 4 4 4 4 5 6 6 5 5 5 5 4
3 3 2 1 1 2 2 2 2 3 4 4 4 4 3 4 4 4 4 3 3 3 3 3 3 3 3 3 4 4 3 3 3 4 4 4 5 5 5 5 6 6 5
3 3 3 2 2 2 2 3 2 2 3 3 3 3 4 4 4 4 4 3 3 3 3 3 3 4 4 4 4 4 3 2 3 3 3 3 3 3 3 4 4 5 6
2 2 2 2 1 1 1 2 3 3 3 3 2 2 3 3 3 3 3 3 2 3 3 3 3 3 3 3 3 3 2 2 3 3 4 3 3 3 3 3 3 3 3
2 2 2 2 2 1 2 2 2 2 2 2 2 2 2 2 2 3 3 2 2 2 2 2 3 2 2 2 2 2 1 1 3 3 3 3 3 3 4 3 3 3 3
1 1 1 2 2 1 2 3 2 2 1 1 1 1 2 2 2 2 2 2 2 2 2 1 2 2 2 1 2 3 2 2 2 2 2 3 3 3 4 4 4 4 4
1 1 2 2 2 2 3 3 2 2 2 1 2 1 2 2 2 2 2 2 1 1 0 1 1 1 1 1 1 2 2 2 2 2 2 2 2 3 4 5 4 5 3
1 2 2 1 1 2 3 3 3 2 2 3 3 2 1 2 2 2 2 2 2 2 1 1 1 1 1 0 0 1 2 2 2 3 2 1 2 3 4 4 4 4 2
1 1 2 1 1 1 2 3 2 2 3 3 2 1 1 1 1 2 2 2 2 2 1 1 1 1 1 0 1 0 1 2 2 2 2 2 2 2 2 3 3 2 2
1 1 2 1 0 0 0 1 2 3 3 3 2 1 1 1 1 1 2 2 2 2 1 1 1 1 1 1 0 0 0 0 0 1 1 2 2 1 1 1 1 1 2
0 1 1 1 1 0 0 0 1 3 3 3 2 1 1 1 1 1 0 1 1 2 3 2 2 2 2 2 2 1 1 1 1 1 0 0 0 1 1 1 1 1 1
1 0 0 1 1 0 0 0 1 2 3 2 2 1 1 1 1 1 1 4 2 2 1 1 2 1 2 1 1 2 1 1 2 2 1 1 1 1 2 1 1 1 2
Wind_Direction
203 186 184 179 172 171 171 180 180 175 162 154 158 162 181 181 176 187 186 185 184 178 173 176 171 170 175 184 177 165 167 180 146 97 350 330 306 272 254 247 242 240 237
194 189 184 181 181 180 181 186 190 180 178 175 164 159 156 169 177 181 178 184 184 181 182 180 182 177 174 178 180 168 163 183 164 146 106 334 329 318 274 249 239 246 244
198 197 191 190 186 186 189 193 193 185 178 163 140 123 107 101 138 171 186 189 184 185 185 182 183 182 180 189 192 180 174 183 195 176 158 172 245 300 310 274 254 256 249
195 195 195 194 194 194 191 190 187 183 175 164 163 165 173 187 194 182 186 186 182 182 182 179 182 185 188 193 200 189 181 173 192 201 200 193 181 194 302 309 288 270 258
195 196 199 200 198 191 187 186 182 183 177 173 174 175 186 189 166 156 172 187 184 184 184 182 184 190 194 198 202 191 189 187 189 192 184 188 200 197 207 271 291 294 271
193 194 196 190 191 186 184 182 179 186 182 181 184 184 186 177 168 174 181 191 190 191 193 190 191 194 196 201 205 197 196 201 202 203 195 188 186 194 196 231 257 274 280
187 187 186 185 187 186 185 181 179 187 185 190 196 196 191 183 187 189 192 192 196 203 207 198 193 197 201 202 196 197 206 204 204 209 213 213 211 186 184 203 236 255 274
185 189 192 190 189 187 184 181 185 188 187 195 200 195 191 191 199 198 194 199 204 211 205 198 201 203 200 200 194 201 211 207 211 217 212 217 221 206 198 194 196 246 271
182 189 189 191 189 188 187 183 184 188 190 196 195 195 199 198 202 201 200 204 206 206 199 198 204 209 205 202 192 204 213 207 215 220 216 219 222 212 215 208 198 198 242
172 185 187 189 189 188 185 178 186 192 191 188 194 197 200 204 205 197 203 204 201 200 190 198 205 210 209 203 197 204 211 210 220 217 218 227 226 216 214 213 211 206 211
184 183 184 183 178 173 178 180 190 196 191 188 190 192 193 196 197 202 208 204 191 184 189 198 204 211 213 209 206 214 212 218 227 226 221 231 225 219 218 213 208 211 206
186 173 164 162 169 177 187 190 193 197 197 190 187 190 189 190 197 207 207 199 194 191 193 198 200 212 214 206 207 218 219 221 227 228 222 231 225 222 220 213 213 212 210
139 118 112 131 163 177 184 191 194 196 192 185 184 185 191 197 203 208 204 196 195 196 194 197 208 214 214 210 211 213 218 221 225 223 222 227 218 224 220 215 214 212 211
131 123 134 151 164 168 169 174 184 186 182 179 182 188 196 201 204 201 195 194 194 199 203 205 215 218 217 214 214 213 219 226 225 220 223 226 220 224 220 217 215 207 203
155 160 165 173 148 140 152 163 174 178 175 172 181 196 200 194 193 198 198 189 195 207 204 203 216 221 221 223 215 214 221 224 231 233 234 232 227 223 216 215 206 197 199
199 198 186 161 139 149 157 156 163 176 160 164 180 182 183 190 193 199 196 189 201 207 200 209 215 222 233 242 225 206 213 217 228 241 248 246 239 231 217 212 203 195 199
213 206 197 192 182 180 164 163 168 160 159 168 180 181 179 186 194 192 188 194 205 201 207 217 217 228 237 233 221 204 201 211 230 238 242 243 241 221 215 214 211 213 217
221 198 177 162 157 147 130 136 131 135 155 164 176 191 180 181 174 170 179 193 199 203 213 221 223 227 247 227 200 178 193 216 237 240 236 229 232 224 201 201 205 225 235
224 191 173 154 133 131 140 116 109 114 131 153 172 180 172 172 172 178 188 185 187 202 210 212 209 212 238 217 181 155 183 239 258 261 253 233 232 224 189 189 201 226 252
83 115 127 116 121 148 139 126 134 131 146 164 174 165 148 163 179 184 183 172 182 207 203 213 224 222 243 227 176 163 175 232 258 263 254 237 229 226 195 200 205 226 246
66 94 114 133 158 149 134 137 139 175 198 143 105 116 146 164 164 160 163 163 161 153 149 224 268 266 261 256 202 179 182 215 246 258 258 253 222 216 204 205 217 226 231
90 98 108 122 114 127 138 153 181 194 136 113 111 115 150 156 145 150 154 141 135 141 174 206 286 295 272 256 108 151 205 218 240 257 261 262 239 222 212 210 218 213 209
117 103 120 127 110 146 152 174 199 142 117 112 115 112 96 112 127 140 141 132 144 166 193 203 229 283 306 10 66 36 235 216 231 264 264 258 240 226 228 224 210 200 201
111 108 117 131 127 37 119 182 169 132 124 131 128 122 101 76 86 111 146 163 176 178 192 211 219 244 280 298 31 325 336 291 235 290 293 268 250 237 248 259 232 219 220
27 121 150 183 228 231 188 101 122 131 137 137 138 133 125 123 98 78 141 188 205 201 195 209 208 210 239 265 247 227 231 225 219 181 321 303 240 239 252 261 257 231 226
249 145 70 301 279 237 288 67 110 138 140 141 165 177 160 140 141 125 47 46 72 56 97 193 201 231 230 247 262 248 224 207 175 149 187 243 254 244 242 245 258 253 245